[[{"header":{"parameterUnit":"m.s-1","parameterCategory":1,"la1":30.2991,"la2":30.254,"lo1":-89.0895,"lo2":-89.0444,"dy":0.0017,"dx":0.0017,"nx":28,"ny":28,"refTime":"2024-04-19T09:00:00:Z","depth":0,"parameterNumber":2,"parameterNumberName":"U-component_of_WINDS"},"data":[0,0,0,0,0,0,0,0,0,0,0,0,0,0,0,0,0,0,0,0,0,0,0,0,0,0,0,0,0,0,0,0,0,0,0,0,0,0,0,0,0,0,0,0,0,0,0,0,0,0,0,0,0,0,0,0,0,0,1.2798,1.2798,0,1.2805,1.2805,1.2805,1.276,1.2758,1.2757,1.2756,1.2765,1.2767,1.2768,0,0,0,0,0,0,0,0,0,0,0,0,0,1.2745,1.2746,1.2798,1.2798,1.2798,1.2805,1.2805,1.2805,1.276,1.2758,1.2757,1.2755,1.2765,1.2766,1.2768,0,0,0,0,0,0,0,0,0,0,0,0,0,1.2762,1.2747,1.2798,1.2776,1.2774,1.2805,1.2805,1.2805,1.276,1.2758,1.2756,1.2754,1.2764,1.2766,1.2768,1.2821,0,0,1.2775,1.2776,0,0,0,0,0,0,0,0,1.2761,1.2764,1.2779,1.2777,1.2775,1.2779,1.279,1.2811,1.2761,1.2766,1.2756,1.2754,1.2772,1.2773,1.2779,1.2821,1.2822,1.2775,1.2777,1.2778,1.2778,0,0,0,0,0,0,0,1.276,1.2763,1.2801,1.2779,1.2777,1.2766,1.2766,1.2794,1.2779,1.2765,1.2762,1.2763,1.277,1.2777,1.2779,1.2822,1.2775,1.2777,1.2778,1.2779,1.2907,1.2909,0,0,0,0,0,0,1.2761,1.2763,1.28,1.2801,1.2763,1.2769,1.2769,1.278,1.2779,1.2777,1.2765,1.2761,1.2774,1.2776,1.2779,1.284,1.2778,1.278,1.2781,1.2905,1.2908,1.291,0,0,0,0,0,0,1.276,1.2765,1.28,1.2781,1.2784,1.2772,1.2785,1.2781,1.2788,1.2779,1.2776,1.2774,1.2773,1.2776,1.281,1.2839,1.2781,1.2783,1.2903,1.2906,1.2909,1.2962,0,0,0,0,0,0,1.2759,1.2765,1.2785,1.2782,1.2786,1.2831,1.2786,1.2783,1.2791,1.2786,1.2787,1.2785,1.2771,1.2807,1.2813,1.2841,1.2784,1.29,1.2904,1.2908,1.2958,1.2967,1.2974,0,0,0,0,0,1.2757,1.28,1.2786,1.2791,1.281,1.2833,1.2835,1.2818,1.2794,1.2814,1.2808,1.2785,1.2835,1.2811,1.2817,1.2847,1.2898,1.2903,1.2908,1.2954,1.2965,1.2974,0,0,0,0,0,0,1.2808,1.2799,1.2784,1.2826,1.2831,1.2825,1.285,1.2831,1.2843,1.2837,1.2816,1.2817,1.2855,1.2854,1.2828,1.2897,1.2863,1.2869,1.2896,1.2906,1.2915,1.2914,1.2786,0,0,0,0,0,1.2823,1.2843,1.2835,1.2873,1.2876,1.2863,1.2872,1.2859,1.2863,1.2864,1.2861,1.2866,1.2883,1.2895,1.291,1.2958,1.2957,1.2981,1.2989,1.2996,1.3001,1.3026,1.3036,1.2925,1.2925,1.2925,0,0,1.2857,1.2855,1.2868,1.2883,1.2885,1.2906,1.2865,1.2888,1.2904,1.2868,1.29,1.2898,1.2903,1.2944,1.2962,1.2945,1.3032,1.3002,1.3007,1.3009,1.3032,1.3042,1.3052,1.2929,1.2928,1.2927,0,0,1.2928,1.2928,1.296,1.2962,1.2965,1.2956,1.2964,1.2962,1.2958,1.299,1.2964,1.2982,1.3012,1.3016,1.3022,1.3094,1.3073,1.3099,1.3143,1.3167,1.3176,1.3184,1.3209,1.3218,1.3105,1.3105,1.3105,0,1.2969,1.2999,1.2979,1.3004,1.3011,1.298,1.3012,1.3015,1.3024,1.3029,1.301,1.3046,1.3046,1.3088,1.3105,1.3111,1.312,1.3099,1.3176,1.3184,1.319,1.3214,1.3224,1.3108,1.3108,1.3108,1.3107,0,1.3049,1.307,1.3095,1.3103,1.3113,1.3142,1.3127,1.3139,1.3125,1.3118,1.3151,1.315,1.3165,1.3173,1.316,1.3213,1.3202,1.318,1.3145,1.3205,1.3227,1.3236,1.3113,1.3112,1.3111,1.311,0,0,1.3152,1.3148,1.3157,1.316,1.3161,1.3177,1.3205,1.3218,1.3229,1.3236,1.3258,1.3284,1.3262,1.3269,1.3256,1.3277,1.3334,1.3252,1.3252,1.3267,1.3392,1.3409,1.342,1.332,1.3322,1.3323,1.3391,0,1.3221,1.3266,1.3249,1.3296,1.3315,1.3285,1.3309,1.3312,1.3306,1.3322,1.3316,1.3334,1.3305,1.3309,1.3329,1.3323,1.3359,1.3318,1.3341,1.3342,1.334,1.3431,1.3449,1.3513,1.34,1.3401,1.3403,0,1.3307,1.3317,1.3366,1.3362,1.337,1.3391,1.3402,1.3417,1.342,1.3414,1.3422,1.3403,1.343,1.3395,1.3432,1.3404,1.3412,1.3411,1.3413,1.3414,1.3376,1.3435,1.3534,1.3543,1.3416,1.3415,1.3414,0,1.3377,1.3402,1.3434,1.3438,1.3435,1.3451,1.3451,1.3452,1.3461,1.347,1.3476,1.3488,1.3495,1.3506,1.3491,1.3467,1.353,1.3494,1.3526,1.3526,1.354,1.3539,1.3642,1.3546,1.3546,1.3546,1.3546,0,1.3455,1.3486,1.3465,1.3485,1.3519,1.3499,1.3533,1.353,1.3531,1.3549,1.3525,1.3543,1.3523,1.3539,1.3529,1.356,1.3564,1.356,1.3556,1.3562,1.3562,1.3567,1.3562,1.3548,1.3548,1.3547,1.3547,0,1.3539,1.3526,1.3559,1.3554,1.3553,1.3578,1.3574,1.3592,1.3584,1.3608,1.3613,1.3601,1.3619,1.3605,1.3623,1.3616,1.3657,1.3648,1.3656,1.3654,1.3686,1.3683,1.3795,1.3808,1.3705,1.3706,1.3706,0,1.359,1.3613,1.361,1.362,1.3621,1.3639,1.3647,1.3629,1.3639,1.3644,1.3662,1.3677,1.3689,1.3719,1.3712,1.3726,1.3716,1.3754,1.3718,1.3723,1.3716,1.3715,1.3717,1.3762,1.3763,1.3764,1.3765,0,1.3681,1.3673,1.3687,1.3698,1.3709,1.3717,1.3723,1.3733,1.3714,1.3727,1.3745,1.3754,1.3772,1.3788,1.3799,1.3799,1.3779,1.3776,1.3784,1.379,1.3793,1.3792,1.3676,1.3774,1.3773,1.3772,1.3772,1.3771,1.3749,1.3768,1.3769,1.3784,1.3787,1.3793,1.381,1.3804,1.3818,1.3831,1.3819,1.384,1.3843,1.3855,1.3858,1.3874,1.3859,1.387,1.3873,1.3876,1.3881,1.3791,1.3876,1.3876,1.3876,1.3876,1.3875,0,1.3839,1.3838,1.3852,1.3861,1.3874,1.3853,1.3859,1.3871,1.389,1.3893,1.3905,1.3925,1.394,1.3934,1.3948,1.3962,1.3953,1.3966,1.3965,1.3965,1.3894,1.3886,1.3973,1.3973,1.3973,1.3973,1.3973,1.3973,1.3887,1.3918,1.391,1.3942,1.394,1.3961,1.3965,1.3971,1.3974,1.3997,1.4009,1.4005,1.4005,1.4018,1.4031,1.4029,1.4035,1.4051,1.4046,1.398,1.397,1.3961,1.3953,1.4053,1.4053,1.4115,1.4116,1.4116]},{"header":{"parameterUnit":"m.s-1","parameterCategory":1,"la1":30.2991,"la2":30.254,"lo1":-89.0895,"lo2":-89.0444,"dy":0.0017,"dx":0.0017,"nx":28,"ny":28,"refTime":"2024-04-19T09:00:00:Z","depth":0,"parameterNumber":3,"parameterNumberName":"V-component_of_WINDS"},"data":[0,0,0,0,0,0,0,0,0,0,0,0,0,0,0,0,0,0,0,0,0,0,0,0,0,0,0,0,0,0,0,0,0,0,0,0,0,0,0,0,0,0,0,0,0,0,0,0,0,0,0,0,0,0,0,0,0,0,1.2246,1.2247,0,1.2276,1.2276,1.2276,1.2218,1.2216,1.2215,1.2213,1.2242,1.2244,1.2246,0,0,0,0,0,0,0,0,0,0,0,0,0,1.2138,1.2141,1.2246,1.2247,1.2247,1.2276,1.2276,1.2276,1.2219,1.2216,1.2214,1.2212,1.2241,1.2244,1.2247,0,0,0,0,0,0,0,0,0,0,0,0,0,1.2178,1.2141,1.2246,1.2222,1.222,1.2275,1.2276,1.2276,1.2219,1.2216,1.2213,1.2211,1.224,1.2243,1.2247,1.2328,0,0,1.2259,1.226,0,0,0,0,0,0,0,0,1.2176,1.2182,1.2225,1.2223,1.2221,1.224,1.2248,1.2294,1.222,1.2219,1.2213,1.2209,1.2243,1.2247,1.2258,1.2329,1.233,1.2259,1.2261,1.2263,1.2264,0,0,0,0,0,0,0,1.2173,1.2181,1.2258,1.2226,1.2223,1.2209,1.2211,1.2257,1.2247,1.2219,1.2215,1.2219,1.2242,1.2255,1.2259,1.2331,1.2259,1.2262,1.2265,1.2266,1.2468,1.2471,0,0,0,0,0,0,1.2174,1.2179,1.2257,1.2259,1.2191,1.2213,1.2216,1.2237,1.2246,1.2245,1.2222,1.2217,1.225,1.2254,1.2259,1.2354,1.2263,1.2267,1.2269,1.2465,1.2468,1.2472,0,0,0,0,0,0,1.2172,1.2181,1.2256,1.2218,1.2226,1.2218,1.2242,1.2239,1.2252,1.2248,1.2246,1.2237,1.2248,1.2254,1.2311,1.2354,1.2268,1.2272,1.2461,1.2466,1.247,1.2544,0,0,0,0,0,0,1.2169,1.2181,1.2212,1.2219,1.2228,1.2308,1.2245,1.2242,1.2259,1.2253,1.2262,1.2261,1.2246,1.2306,1.2315,1.2358,1.2275,1.2457,1.2463,1.2469,1.2537,1.255,1.2561,0,0,0,0,0,1.2165,1.2231,1.2214,1.2224,1.2267,1.231,1.2315,1.2297,1.2263,1.2294,1.2291,1.226,1.2348,1.2312,1.2322,1.2367,1.2454,1.2462,1.2468,1.2532,1.2548,1.2561,0,0,0,0,0,0,1.2229,1.2232,1.2212,1.2283,1.2297,1.23,1.2338,1.2315,1.2338,1.2331,1.2307,1.231,1.2372,1.2375,1.2335,1.2444,1.2395,1.2404,1.244,1.2455,1.2467,1.2465,1.2278,0,0,0,0,0,1.2252,1.2287,1.2287,1.2349,1.2357,1.2347,1.2365,1.235,1.2363,1.2369,1.237,1.2384,1.2414,1.2435,1.2463,1.2537,1.2538,1.2573,1.2585,1.2595,1.2603,1.2642,1.2658,1.2495,1.2494,1.2494,0,0,1.2298,1.2304,1.2328,1.2362,1.2371,1.2408,1.2352,1.2394,1.242,1.2375,1.2429,1.243,1.2444,1.251,1.2539,1.2515,1.2648,1.2604,1.2612,1.2614,1.2651,1.2667,1.268,1.2499,1.2498,1.2498,0,0,1.2402,1.241,1.2462,1.2472,1.2487,1.248,1.2492,1.25,1.2499,1.2553,1.2519,1.2551,1.2604,1.2615,1.2627,1.2735,1.2707,1.2744,1.2807,1.2845,1.2858,1.2869,1.2907,1.2921,1.2752,1.2753,1.2753,0,1.2457,1.2512,1.2492,1.2536,1.2552,1.2513,1.2565,1.2576,1.2599,1.261,1.2582,1.2648,1.2654,1.2722,1.2748,1.276,1.2773,1.2743,1.2858,1.2869,1.2879,1.2915,1.293,1.2757,1.2756,1.2756,1.2756,0,1.258,1.2618,1.2659,1.2682,1.2703,1.2751,1.2737,1.276,1.2743,1.2739,1.2794,1.28,1.2828,1.2843,1.2827,1.2909,1.2893,1.2862,1.2812,1.29,1.2933,1.2947,1.2763,1.2762,1.276,1.2759,0,0,1.2724,1.2736,1.2751,1.2762,1.2775,1.2804,1.2849,1.2878,1.2898,1.2914,1.2952,1.2998,1.2969,1.2983,1.2968,1.3002,1.3086,1.2966,1.2966,1.2988,1.3176,1.32,1.3216,1.3068,1.3071,1.3073,1.3175,0,1.2827,1.2906,1.289,1.2968,1.3003,1.2966,1.3006,1.3018,1.3015,1.3043,1.3039,1.3072,1.3032,1.304,1.3072,1.3069,1.3124,1.3061,1.3102,1.3104,1.31,1.3234,1.3259,1.3355,1.3188,1.319,1.3192,0,1.2957,1.2979,1.3061,1.3069,1.3082,1.3119,1.3143,1.3171,1.3184,1.3179,1.3195,1.3173,1.3218,1.3167,1.3228,1.3186,1.3202,1.3203,1.3206,1.3209,1.3153,1.324,1.3385,1.34,1.3212,1.3211,1.3209,0,1.3054,1.3105,1.316,1.317,1.318,1.3206,1.3211,1.3221,1.3239,1.326,1.3271,1.3297,1.3311,1.3331,1.3316,1.3281,1.338,1.3328,1.3377,1.3377,1.3399,1.3398,1.3549,1.341,1.3409,1.3409,1.3409,0,1.317,1.3221,1.3204,1.3238,1.3294,1.3274,1.333,1.3331,1.334,1.3373,1.3342,1.3374,1.3352,1.3382,1.3371,1.3423,1.3429,1.3426,1.3423,1.3429,1.343,1.3439,1.3432,1.3413,1.3412,1.3411,1.3411,0,1.3288,1.3278,1.3336,1.3341,1.3344,1.3385,1.3389,1.342,1.3414,1.3457,1.3465,1.3457,1.349,1.3477,1.3512,1.3505,1.3571,1.3559,1.3567,1.3564,1.3614,1.3609,1.3776,1.3797,1.3644,1.3645,1.3647,0,1.3363,1.3401,1.3411,1.3431,1.3439,1.3472,1.349,1.3471,1.3492,1.3509,1.3538,1.3569,1.3592,1.3647,1.3643,1.367,1.3658,1.3714,1.3662,1.3667,1.3659,1.3657,1.366,1.3725,1.3727,1.3728,1.373,0,1.3496,1.349,1.3517,1.3544,1.3567,1.3586,1.3603,1.3621,1.3604,1.3628,1.3662,1.368,1.3716,1.3747,1.377,1.3775,1.375,1.3746,1.3759,1.3766,1.3769,1.3768,1.3596,1.3742,1.3741,1.374,1.374,1.3739,1.3595,1.3627,1.3639,1.3671,1.3682,1.3699,1.3728,1.3727,1.3755,1.3784,1.377,1.381,1.3821,1.385,1.3858,1.3888,1.3866,1.3884,1.3889,1.3894,1.39,1.3765,1.3892,1.3892,1.3892,1.3891,1.3891,0,1.3726,1.3732,1.3762,1.3787,1.3812,1.3786,1.3804,1.3826,1.3861,1.3874,1.3898,1.3937,1.3967,1.3966,1.3993,1.4017,1.4006,1.4025,1.4023,1.4024,1.3919,1.3905,1.4033,1.4033,1.4033,1.4033,1.4033,1.4033,1.3798,1.3852,1.3847,1.3906,1.3911,1.395,1.3962,1.3977,1.3987,1.4032,1.4057,1.4056,1.4063,1.409,1.4116,1.4115,1.4126,1.415,1.4144,1.4046,1.4032,1.4018,1.4005,1.4152,1.4152,1.4247,1.4248,1.4249]}]]